CAPE
432 534 371 279 334 319 256 226 182 116 127 214 335 309 340 386 426 461 356 286 261 205 204 228 219 200 188 184 212 208 193 173 223 364 394 684 567 526 373 395 770 974
344 372 410 371 398 284 274 187 122 218 354 391 400 418 389 357 342 290 311 319 272 220 190 205 196 175 189 134 173 167 204 276 259 252 356 630 609 354 257 415 241 294
384 261 280 400 298 222 17 60 91 271 320 316 332 326 342 240 277 290 296 261 271 225 180 176 151 135 124 138 176 194 126 138 198 370 327 266 488 788 545 526 754 695
445 298 140 138 205 147 79 52 174 225 268 232 233 235 213 235 208 243 254 238 224 189 190 211 155 132 137 154 178 299 246 278 237 157 131 208 382 454 365 234 149 139
246 248 300 220 160 124 41 28 142 164 181 177 169 175 204 178 203 194 208 178 165 126 88 74 84 106 142 158 210 373 482 467 275 227 409 476 464 464 512 499 452 264
274 260 264 297 230 149 132 84 77 138 157 121 158 135 150 152 190 208 204 184 132 92 97 136 124 96 170 256 383 581 837 688 630 692 1018 1017 701 530 585 505 382 266
370 444 432 365 250 206 132 139 108 145 159 178 188 208 158 145 173 221 269 237 220 235 258 443 568 516 393 402 458 666 758 781 982 904 698 727 747 445 319 294 266 248
363 312 370 398 304 203 124 99 20 11 109 218 143 193 180 167 168 155 201 198 230 213 294 368 609 742 564 456 522 546 590 691 644 684 909 859 870 465 84 164 227 231
362 320 340 282 214 128 51 6 12 17 8 10 110 79 103 159 158 200 297 374 380 422 536 686 979 787 740 899 596 591 1030 1108 676 815 972 1105 1017 380 223 231 202 224
523 518 310 202 130 121 58 18 0 7 31 28 18 3 8 85 166 246 317 333 375 464 438 597 846 856 914 738 523 730 1086 1156 902 880 938 905 502 265 220 219 200 204
614 493 410 376 244 65 19 2 0 3 3 4 15 44 31 2 10 38 87 128 156 295 918 1312 815 323 479 657 661 820 1048 1078 1065 1041 828 779 492 312 220 186 206 188
633 516 362 248 176 102 101 82 26 4 18 27 17 14 2 0 0 0 2 31 87 122 371 1020 970 802 632 738 808 952 961 1097 976 919 729 576 430 318 256 203 159 100
465 436 377 240 137 109 117 54 5 0 1 41 16 14 0 0 0 0 0 2 54 78 64 329 847 817 972 539 622 924 1229 1308 1082 946 578 543 452 331 273 283 127 86
310 298 272 258 164 129 118 98 70 33 121 205 163 94 16 0 0 1 0 2 28 51 84 86 445 1243 1085 711 521 623 860 1014 962 1014 683 551 497 446 346 322 199 135
384 346 266 194 134 170 185 214 179 190 247 199 116 79 48 15 12 8 41 54 52 80 193 310 605 1341 1214 918 1020 1056 980 864 864 916 582 504 586 466 356 310 262 139
602 527 494 354 264 210 252 288 236 253 333 274 166 65 63 52 82 88 60 46 48 87 196 405 821 1286 992 760 803 1134 881 787 916 736 577 542 553 477 339 256 358 231
538 583 595 576 534 408 372 397 458 663 592 418 252 129 151 134 91 50 39 68 105 235 466 682 881 935 821 986 1059 1042 840 928 928 641 473 411 475 440 395 427 490 346
474 451 517 538 552 528 490 496 598 590 622 519 316 173 128 42 25 43 78 151 219 409 592 704 762 654 828 939 990 954 816 1030 978 718 425 323 321 420 586 572 404 276
423 428 362 408 547 575 591 601 640 668 657 562 278 92 38 62 74 59 82 141 262 360 354 368 626 479 708 778 906 894 758 662 957 836 370 230 246 428 751 742 413 443
342 356 385 367 460 576 654 740 766 796 710 454 160 104 68 44 30 97 208 396 650 484 474 383 314 470 500 702 833 895 768 688 1145 996 460 398 524 757 894 888 876 809
324 277 398 414 479 688 851 930 998 1188 870 349 94 66 84 146 161 161 306 785 398 582 558 523 309 185 268 442 613 757 764 590 1106 1145 595 468 484 636 874 1006 1019 919
318 319 450 514 636 851 1173 1183 1140 1294 931 366 135 80 133 191 148 112 97 323 560 454 426 322 396 338 143 20 342 691 741 916 1255 1234 626 211 302 574 1096 1191 1304 1436
264 252 334 465 512 631 743 968 1088 1102 717 308 131 153 248 176 187 250 229 232 359 408 382 416 334 412 484 235 0 427 786 1254 1248 898 454 214 351 553 877 1041 1212 1324
304 331 479 544 552 454 493 721 886 877 499 272 179 137 133 102 314 351 448 464 524 566 396 427 396 385 305 215 0 0 451 1244 927 483 1151 843 800 833 1031 1249 1518 1038
254 313 522 734 549 333 425 580 605 604 517 423 302 190 262 420 390 393 411 424 361 360 324 366 394 409 500 492 27 0 0 752 1280 901 1182 911 610 732 760 968 1056 1237
308 419 714 680 466 326 367 498 475 594 658 551 467 193 76 24 56 93 478 606 540 374 313 347 417 501 654 538 360 0 0 264 1053 771 1008 881 924 384 320 244 327 426
Wind_Speed
27 29 29 29 30 31 30 30 30 30 30 30 30 30 30 31 30 30 30 31 31 32 33 35 36 37 36 35 35 35 35 34 34 33 29 27 26 24 23 23 24 26
28 30 31 31 32 32 32 32 31 31 31 30 30 31 31 31 31 31 31 31 31 32 33 34 35 37 37 36 35 35 34 34 34 35 32 29 29 27 26 26 26 28
31 31 33 34 32 34 nan nan nan 32 32 31 31 32 33 33 32 32 32 32 33 33 34 35 35 36 37 37 36 35 34 34 34 35 34 32 31 30 30 30 30 28
32 32 32 34 34 35 nan nan 35 35 34 34 33 33 34 34 33 33 34 35 35 36 36 36 37 37 37 37 37 36 35 35 35 35 35 35 34 34 32 32 31 31
33 34 35 35 36 36 nan nan 35 35 35 35 34 34 35 35 35 35 36 36 37 37 nan nan nan 39 38 37 37 36 35 37 37 37 37 37 38 37 36 35 32 30
35 36 36 37 37 37 36 nan nan 35 35 34 34 35 35 35 35 36 36 36 37 nan nan 38 39 nan 39 37 37 37 36 38 38 37 38 38 39 38 38 35 32 30
36 37 38 38 38 38 37 37 36 36 35 36 36 35 35 35 36 37 37 38 38 38 37 39 40 40 41 39 39 39 40 38 38 39 38 39 39 38 37 36 34 31
36 37 38 39 39 38 38 nan nan nan 36 37 37 37 36 36 36 38 39 39 38 38 38 38 39 40 41 41 40 40 40 43 41 40 39 38 39 38 nan 37 35 31
37 38 38 38 38 38 nan nan nan nan nan nan 37 nan 38 38 38 39 39 39 38 38 38 38 39 40 43 43 42 41 42 44 42 42 41 38 37 37 35 36 34 33
39 38 37 36 38 40 nan nan nan nan nan nan nan nan nan nan 40 40 41 40 38 36 37 38 39 41 43 44 43 43 44 43 42 42 41 38 36 35 35 36 34 33
39 37 38 38 38 nan nan nan nan nan nan nan nan nan nan nan nan nan nan 41 39 37 36 38 38 39 42 42 42 43 40 38 38 39 38 37 35 34 35 34 33 33
40 37 36 37 38 38 39 nan nan nan nan nan nan nan nan nan nan nan nan nan nan 38 38 39 41 42 40 36 38 40 35 33 36 36 35 35 34 33 33 33 34 nan
39 38 38 39 40 41 42 nan nan nan nan nan nan nan nan nan nan nan nan nan nan nan nan 42 42 43 45 45 44 40 36 37 38 35 32 34 33 32 31 31 33 nan
39 39 40 41 42 43 43 nan nan nan 42 41 39 nan nan nan nan nan nan nan nan nan nan nan 42 47 47 47 45 44 40 41 39 34 30 30 31 30 29 30 32 33
41 41 42 44 45 45 45 43 43 43 42 40 40 nan nan nan nan nan nan nan nan nan 38 39 41 44 47 46 43 41 41 39 35 31 28 28 28 28 28 29 31 32
45 44 44 46 47 47 45 44 44 43 42 41 40 nan nan nan nan nan nan nan nan nan 39 40 41 45 42 43 42 39 36 34 31 27 26 26 26 26 26 26 29 31
47 46 47 48 49 47 46 45 44 44 43 42 41 40 40 41 nan nan nan nan 37 37 39 40 41 48 51 50 47 40 35 30 26 25 24 23 23 24 25 25 28 29
46 47 48 49 49 48 46 45 45 45 44 43 42 41 41 nan nan nan nan 40 40 39 38 38 37 45 48 47 43 40 34 28 24 24 23 22 22 23 25 26 26 28
47 47 48 49 49 48 47 46 45 45 45 44 43 nan nan nan nan nan nan 41 40 38 35 32 33 46 45 44 39 36 34 29 24 21 20 19 20 22 25 27 28 29
48 49 49 49 49 48 47 46 45 44 44 44 44 45 nan nan nan nan 41 43 43 40 38 35 34 38 41 41 36 33 32 31 24 21 18 18 19 21 25 28 29 30
48 50 49 48 48 48 48 46 44 44 44 44 nan nan nan 44 41 41 42 51 48 43 39 36 37 43 36 35 32 30 29 30 25 22 19 18 20 23 24 25 28 31
50 51 50 48 47 46 46 45 43 44 44 45 44 nan 44 43 43 43 nan 43 44 42 38 36 34 38 33 nan 30 27 27 27 25 23 20 18 20 24 27 28 30 32
50 50 50 48 46 44 43 43 42 43 43 44 43 44 44 43 44 44 44 41 40 39 37 34 31 29 30 28 nan 25 25 24 24 22 19 17 18 22 25 26 30 32
49 48 48 47 46 43 43 42 40 41 41 44 43 42 41 41 44 45 44 42 40 38 36 33 28 32 37 29 nan nan 24 22 23 19 20 19 17 21 25 26 28 28
46 46 46 48 47 43 42 42 39 37 39 42 43 42 41 43 46 45 42 40 38 36 39 34 28 26 28 25 nan nan nan 23 23 21 22 22 19 19 23 25 23 27
46 46 48 47 44 41 42 43 41 38 38 41 43 41 nan nan nan nan 40 38 36 35 34 31 27 24 24 25 22 nan nan 21 24 22 22 19 17 17 20 22 24 23
Wind_Direction
318 317 314 312 309 310 311 311 310 309 311 314 316 315 316 318 319 321 322 321 318 318 315 312 310 310 310 311 310 310 310 308 305 302 297 294 293 292 294 293 292 289
317 317 317 315 313 313 313 312 310 309 309 312 314 313 314 317 320 321 322 321 321 320 316 313 311 310 309 307 306 306 306 305 303 301 299 294 291 291 294 290 288 287
314 316 318 318 315 310 nan nan nan 309 309 308 308 313 316 317 318 320 322 323 322 321 318 316 313 309 307 306 305 304 304 302 300 298 297 293 292 292 289 288 288 282
312 314 314 314 314 313 nan nan 312 310 309 309 309 311 313 315 318 321 323 324 323 322 320 318 314 309 306 305 303 303 302 300 298 296 294 293 293 290 289 287 282 279
310 311 312 312 311 311 nan nan 313 310 308 306 308 312 315 316 318 320 321 322 322 322 nan nan nan 310 306 302 300 300 300 299 297 294 294 294 291 291 291 288 284 278
309 309 309 310 311 313 313 nan nan 311 309 308 307 308 310 313 316 318 320 321 320 nan nan 314 312 nan 306 302 299 298 297 296 295 294 292 291 289 289 289 287 281 275
309 309 310 310 312 313 315 313 312 312 312 309 307 310 310 312 315 318 320 321 320 318 317 314 312 310 307 304 301 299 298 297 296 294 293 293 291 289 288 285 281 276
309 308 308 310 312 313 313 nan nan nan 315 313 312 310 310 310 314 316 319 320 319 318 317 315 313 311 307 305 301 299 300 300 299 298 295 293 292 289 nan 284 280 274
309 308 309 310 312 312 nan nan nan nan nan nan 313 nan 312 313 314 318 319 320 320 318 318 316 314 313 308 304 302 302 302 300 298 297 296 294 292 288 284 281 278 272
311 310 309 309 313 315 nan nan nan nan nan nan nan nan nan nan 317 320 321 321 319 318 318 318 317 313 308 305 305 304 301 300 299 299 298 296 291 287 282 280 275 271
313 311 311 313 315 nan nan nan nan nan nan nan nan nan nan nan nan nan nan 322 320 318 315 313 315 315 312 311 309 307 304 300 300 300 299 297 292 287 283 280 275 272
314 312 312 314 316 318 321 nan nan nan nan nan nan nan nan nan nan nan nan nan nan 319 318 318 316 310 308 306 309 309 305 303 305 305 301 297 293 288 285 282 280 nan
314 314 315 317 319 321 322 nan nan nan nan nan nan nan nan nan nan nan nan nan nan nan nan 319 318 315 312 309 306 304 302 306 311 309 303 299 293 290 288 286 283 nan
315 315 317 319 320 321 321 nan nan nan 315 316 318 nan nan nan nan nan nan nan nan nan nan nan 313 314 313 309 308 306 308 309 310 307 301 297 293 293 292 289 287 286
316 316 318 320 321 322 322 320 318 317 316 317 319 nan nan nan nan nan nan nan nan nan 318 316 316 314 310 310 310 311 307 304 305 303 298 295 294 295 296 294 294 293
317 317 319 320 321 321 320 319 318 318 318 318 319 nan nan nan nan nan nan nan nan nan 320 318 314 312 311 317 314 306 303 302 302 299 296 296 296 299 300 297 300 300
316 317 320 321 320 321 321 320 320 319 319 319 319 320 322 322 nan nan nan nan 320 320 319 317 314 308 314 314 309 307 305 304 299 295 296 298 299 300 302 302 306 308
316 318 319 320 320 321 322 321 321 321 321 321 320 321 320 nan nan nan nan 322 322 321 318 314 312 310 314 312 317 317 316 309 302 297 295 299 301 303 306 308 309 312
317 318 318 319 320 321 321 321 322 322 321 320 319 nan nan nan nan nan nan 321 321 318 313 308 305 310 317 317 319 323 324 321 310 304 301 301 304 308 313 315 313 315
317 318 319 319 320 320 321 322 322 322 319 318 318 317 nan nan nan nan 320 315 305 307 308 307 300 313 315 320 321 324 327 323 317 312 307 307 308 312 317 318 317 317
318 319 319 318 319 320 321 322 322 321 318 316 nan nan nan 315 315 316 318 313 318 317 313 306 304 305 312 316 321 323 325 321 318 315 311 313 315 317 315 316 318 319
319 319 318 318 318 319 321 323 323 320 318 316 317 nan 316 315 317 316 nan 316 314 311 308 304 300 300 305 nan 318 325 325 317 320 318 318 315 313 317 321 320 322 322
319 317 317 317 318 320 322 323 321 318 316 316 318 318 317 317 317 319 319 318 314 310 307 304 302 307 310 304 nan 323 319 315 317 317 311 306 311 318 321 323 327 326
315 315 316 317 318 321 321 319 317 315 316 316 316 316 317 319 319 320 321 319 316 313 308 304 303 296 296 301 nan nan 318 315 312 314 306 307 316 320 319 326 324 324
314 314 315 318 319 320 317 314 312 314 316 316 317 317 318 320 323 321 321 319 317 310 306 311 306 299 299 303 nan nan nan 315 316 317 317 316 320 314 316 321 325 329
314 313 315 317 318 315 312 311 313 316 318 318 319 319 nan nan nan nan 321 319 312 309 309 307 304 298 296 300 300 nan nan 317 319 321 318 317 316 317 316 324 326 332